User: anonymous   Login
Location: Powder Track
(41.8531°N, 72.3584°W)
Time: 10:32:49
(UTC+00:00)
Language:

Explorer 7 - Orbit

View from above orbital plane
View from above orbital plane
View from above satellite
View from above satellite

Ground track
Ground track

The orbit data is extracted from the following two-line orbital elements,

1 00022U 59009A   21214.88038965  .00000040  00000-0  26174-4 0  9992
2 00022  50.2850 330.9530 0138294  31.2179 329.6891 14.95638002531936
Epoch (UTC): 02 August 2021 21:07:45
Eccentricity: 0.0138294
inclination: 50.2850°
perigee height: 484 km
apogee height: 676 km
right ascension of ascending node: 330.9530°
argument of perigee: 31.2179°
revolutions per day: 14.95638002
mean anomaly at epoch: 329.6891°
orbit number at epoch: 53193

The dashed part of the orbit path shows where the satellite is in the earth's shadow,  

DLR